Location: Freistadt
(48.5112°N, 14.5013°E)
Time: 12:57:44
(UTC+02:00)

CUBEBUG 2 - Visible Passes

Search period start: 02 April 2023 00:00
Search period end: 12 April 2023 00:00
Orbit: 581 x 685 km, 97.8° (Epoch: 01 April)

Date Brightness Start Highest point End Pass type
(mag) Time Alt. Az. Time Alt. Az. Time Alt. Az.
02 Apr ? 02:30:13 10° NE 02:32:48 18° E 02:32:48 18° E visible
02 Apr ? 04:05:36 10° N 04:10:13 59° WNW 04:10:14 59° WNW visible
03 Apr ? 02:50:52 10° NE 02:54:23 27° E 02:54:23 27° E visible
03 Apr ? 04:27:02 10° N 04:31:21 38° WNW 04:31:49 37° W visible
04 Apr ? 03:11:48 10° NNE 03:15:57 43° E 03:15:57 43° E visible
04 Apr ? 04:48:36 10° N 04:52:24 26° WNW 04:53:23 24° W visible
05 Apr ? 03:32:53 10° NNE 03:37:30 70° E 03:37:30 70° E visible
05 Apr ? 05:10:21 10° NNW 05:13:23 17° WNW 05:14:56 15° W visible
06 Apr ? 02:19:19 10° NE 02:21:37 14° E 02:21:37 14° E visible
06 Apr ? 03:54:06 10° N 03:58:45 75° WNW 03:59:03 71° WSW visible
06 Apr ? 05:32:38 10° NNW 05:34:17 12° NW 05:35:55 10° WNW visible
07 Apr ? 02:39:39 10° NE 02:43:08 22° E 02:43:08 22° E visible
07 Apr ? 04:15:25 10° N 04:19:52 47° WNW 04:20:34 43° W visible
08 Apr ? 03:00:23 10° NNE 03:04:36 34° E 03:04:39 34° E visible
08 Apr ? 04:36:51 10° N 04:40:54 31° WNW 04:42:05 27° W visible
09 Apr ? 03:21:21 10° NNE 03:25:53 54° E 03:26:09 53° ESE visible
09 Apr ? 04:58:26 10° NNW 05:01:52 21° WNW 05:03:35 17° W visible
10 Apr ? 02:08:53 10° ENE 02:09:57 11° E 02:10:12 11° E visible
10 Apr ? 03:42:26 10° NNE 03:47:04 86° E 03:47:38 68° S visible
10 Apr ? 05:20:21 10° NNW 05:22:46 14° WNW 05:25:04 10° W visible
11 Apr ? 02:28:22 10° NE 02:31:23 17° E 02:31:41 17° E visible
11 Apr ? 04:03:39 10° N 04:08:11 60° WNW 04:09:06 49° WSW visible
